BKB1 CYKA-KHIO

Flight info

Callsign BKB1
Flight time 1h 27m
Altitude 25000
Route KEBRA DCT YDC/N0272F240 J503 SEA HELNS6
Aircraft PC12/L-SDFGRWY/S

Departure

Time 2026-04-29 10:06
Airport Kamloops John Moose Fulton Field Regional Airport (CYKA)

Arrival

Time 2026-04-29 11:34
Airport Portland Hillsboro Airport (KHIO)
Time Latitude Longitude Altitude Speed Heading
2026-04-29 09:51 50.70507 -120.44042 1131 ft 0 kts 18°
2026-04-29 10:01 50.70512 -120.44037 1131 ft 2 kts 51°
2026-04-29 10:02 50.70486 -120.44019 1134 ft 9 kts 182°
2026-04-29 10:02 50.70428 -120.44088 1131 ft 12 kts 240°
2026-04-29 10:02 50.70387 -120.44201 1131 ft 12 kts 238°
2026-04-29 10:02 50.70364 -120.44319 1131 ft 12 kts 313°
2026-04-29 10:03 50.70415 -120.44410 1131 ft 12 kts 288°
2026-04-29 10:03 50.70435 -120.44532 1131 ft 11 kts 285°
2026-04-29 10:03 50.70453 -120.44655 1131 ft 11 kts 279°
2026-04-29 10:03 50.70469 -120.44777 1135 ft 12 kts 283°
2026-04-29 10:04 50.70490 -120.44900 1132 ft 12 kts 287°
2026-04-29 10:04 50.70514 -120.45020 1131 ft 11 kts 279°
2026-04-29 10:04 50.70523 -120.45147 1131 ft 12 kts 263°
2026-04-29 10:04 50.70483 -120.45263 1133 ft 12 kts 242°
2026-04-29 10:05 50.70435 -120.45378 1133 ft 12 kts 234°
2026-04-29 10:05 50.70380 -120.45362 1134 ft 9 kts 103°
2026-04-29 10:05 50.70377 -120.45346 1134 ft 0 kts 103°
2026-04-29 10:05 50.70340 -120.45104 1132 ft 51 kts 104°
2026-04-29 10:06 50.70216 -120.44296 1132 ft 96 kts 103°
2026-04-29 10:06 50.70047 -120.43130 1261 ft 114 kts 103°
2026-04-29 10:06 50.69865 -120.41882 1609 ft 118 kts 105°
2026-04-29 10:06 50.69650 -120.40618 2001 ft 121 kts 107°
2026-04-29 10:07 50.69428 -120.39198 2174 ft 141 kts 104°
2026-04-29 10:07 50.69201 -120.37623 2444 ft 152 kts 104°
2026-04-29 10:07 50.68951 -120.35926 2716 ft 170 kts 104°
2026-04-29 10:07 50.68667 -120.34026 3035 ft 185 kts 105°
2026-04-29 10:08 50.68358 -120.31995 3290 ft 196 kts 105°
2026-04-29 10:08 50.68035 -120.29861 3591 ft 203 kts 104°
2026-04-29 10:08 50.67705 -120.27667 3905 ft 208 kts 104°
2026-04-29 10:08 50.67367 -120.25423 4203 ft 213 kts 104°
2026-04-29 10:09 50.67019 -120.23127 4488 ft 216 kts 103°
2026-04-29 10:09 50.66668 -120.20812 4773 ft 218 kts 103°
2026-04-29 10:09 50.66317 -120.18507 5055 ft 219 kts 103°
2026-04-29 10:09 50.65961 -120.16170 5331 ft 220 kts 103°
2026-04-29 10:10 50.65604 -120.13826 5612 ft 220 kts 103°
2026-04-29 10:10 50.65247 -120.11478 5895 ft 220 kts 102°
2026-04-29 10:10 50.64889 -120.09120 6179 ft 220 kts 102°
2026-04-29 10:10 50.64531 -120.06776 6465 ft 221 kts 102°
2026-04-29 10:11 50.64171 -120.04426 6744 ft 220 kts 102°
2026-04-29 10:11 50.63810 -120.02080 7012 ft 220 kts 102°
2026-04-29 10:11 50.63448 -119.99736 7286 ft 220 kts 102°
2026-04-29 10:11 50.63086 -119.97384 7567 ft 220 kts 102°
2026-04-29 10:12 50.62597 -119.95146 7842 ft 220 kts 118°
2026-04-29 10:12 50.61538 -119.93420 8113 ft 223 kts 147°
2026-04-29 10:12 50.60074 -119.92691 8394 ft 223 kts 177°
2026-04-29 10:12 50.58548 -119.93055 8681 ft 221 kts 195°
2026-04-29 10:13 50.57051 -119.93633 8971 ft 222 kts 194°
2026-04-29 10:13 50.55550 -119.94191 9258 ft 222 kts 194°
2026-04-29 10:13 50.54041 -119.94751 9561 ft 223 kts 194°
2026-04-29 10:13 50.52534 -119.95314 9845 ft 223 kts 194°
2026-04-29 10:14 50.51019 -119.95883 10151 ft 224 kts 194°
2026-04-29 10:14 50.49503 -119.96452 10417 ft 224 kts 194°
2026-04-29 10:14 50.47983 -119.97024 10684 ft 224 kts 194°
2026-04-29 10:14 50.46466 -119.97594 10952 ft 224 kts 194°
2026-04-29 10:15 50.44964 -119.98158 11225 ft 225 kts 194°
2026-04-29 10:15 50.43442 -119.98730 11500 ft 225 kts 194°
2026-04-29 10:15 50.41918 -119.99301 11777 ft 225 kts 194°
2026-04-29 10:15 50.40396 -119.99872 12062 ft 225 kts 194°
2026-04-29 10:16 50.38873 -120.00442 12342 ft 225 kts 194°
2026-04-29 10:16 50.37867 -120.00819 12531 ft 225 kts 194°
2026-04-29 10:16 50.35830 -120.01581 12915 ft 225 kts 194°
2026-04-29 10:16 50.34307 -120.02150 13204 ft 225 kts 194°
2026-04-29 10:17 50.32782 -120.02720 13497 ft 225 kts 194°
2026-04-29 10:17 50.31255 -120.03290 13795 ft 225 kts 194°
2026-04-29 10:17 50.29730 -120.03859 14089 ft 225 kts 194°
2026-04-29 10:17 50.28223 -120.04421 14351 ft 226 kts 194°
2026-04-29 10:18 50.26694 -120.04991 14625 ft 226 kts 194°
2026-04-29 10:18 50.25165 -120.05558 14894 ft 226 kts 194°
2026-04-29 10:18 50.23630 -120.06127 15164 ft 227 kts 194°
2026-04-29 10:18 50.22088 -120.06699 15438 ft 228 kts 194°
2026-04-29 10:19 50.20543 -120.07274 15710 ft 229 kts 194°
2026-04-29 10:19 50.18993 -120.07851 15992 ft 230 kts 194°
2026-04-29 10:19 50.17438 -120.08429 16271 ft 230 kts 194°
2026-04-29 10:19 50.15874 -120.09011 16551 ft 231 kts 194°
2026-04-29 10:20 50.14312 -120.09591 16840 ft 231 kts 194°
2026-04-29 10:20 50.12743 -120.10173 17133 ft 232 kts 194°
2026-04-29 10:20 50.11166 -120.10758 17423 ft 233 kts 194°
2026-04-29 10:20 50.09590 -120.11341 17716 ft 233 kts 194°
2026-04-29 10:21 50.08012 -120.11925 18010 ft 233 kts 194°
2026-04-29 10:21 50.06430 -120.12509 18301 ft 234 kts 194°
2026-04-29 10:21 50.04846 -120.13094 18597 ft 234 kts 194°
2026-04-29 10:21 50.03256 -120.13680 18857 ft 234 kts 194°
2026-04-29 10:22 50.01667 -120.14266 19119 ft 235 kts 194°
2026-04-29 10:22 50.00077 -120.14852 19380 ft 235 kts 194°
2026-04-29 10:22 49.98504 -120.15431 19641 ft 236 kts 194°
2026-04-29 10:22 49.96906 -120.16019 19910 ft 236 kts 194°
2026-04-29 10:23 49.95304 -120.16607 20182 ft 237 kts 194°
2026-04-29 10:23 49.93703 -120.17195 20459 ft 237 kts 194°
2026-04-29 10:23 49.92095 -120.17786 20737 ft 238 kts 194°
2026-04-29 10:23 49.90477 -120.18379 21015 ft 239 kts 194°
2026-04-29 10:24 49.88857 -120.18973 21288 ft 239 kts 194°
2026-04-29 10:24 49.87230 -120.19569 21573 ft 240 kts 194°
2026-04-29 10:24 49.85597 -120.20167 21871 ft 241 kts 194°
2026-04-29 10:24 49.83960 -120.20766 22156 ft 242 kts 194°
2026-04-29 10:25 49.82323 -120.21364 22447 ft 242 kts 194°
2026-04-29 10:25 49.80681 -120.21964 22741 ft 243 kts 194°
2026-04-29 10:25 49.79033 -120.22565 23040 ft 243 kts 194°
2026-04-29 10:25 49.77381 -120.23167 23332 ft 244 kts 195°
2026-04-29 10:26 49.75743 -120.23764 23636 ft 245 kts 195°
2026-04-29 10:26 49.74084 -120.24368 23927 ft 245 kts 195°
2026-04-29 10:26 49.72419 -120.24974 24184 ft 246 kts 195°
2026-04-29 10:26 49.70746 -120.25583 24438 ft 247 kts 195°
2026-04-29 10:27 49.67386 -120.26804 24967 ft 249 kts 195°
2026-04-29 10:27 49.65659 -120.27433 25011 ft 261 kts 195°
2026-04-29 10:27 49.63868 -120.28088 25085 ft 267 kts 195°
2026-04-29 10:28 49.62044 -120.28753 25189 ft 272 kts 195°
2026-04-29 10:28 49.60180 -120.29432 25240 ft 278 kts 195°
2026-04-29 10:28 49.58302 -120.30114 25269 ft 283 kts 195°
2026-04-29 10:28 49.56371 -120.30815 25282 ft 287 kts 195°
2026-04-29 10:29 49.54410 -120.31525 25285 ft 291 kts 195°
2026-04-29 10:29 49.52436 -120.32239 25288 ft 293 kts 195°
2026-04-29 10:29 49.50441 -120.32959 25289 ft 294 kts 195°
2026-04-29 10:29 49.48441 -120.33682 25292 ft 296 kts 195°
2026-04-29 10:30 49.46431 -120.34406 25297 ft 297 kts 195°
2026-04-29 10:30 49.44420 -120.35130 25304 ft 297 kts 195°
2026-04-29 10:30 49.42398 -120.35857 25296 ft 298 kts 195°
2026-04-29 10:30 49.40377 -120.36584 25298 ft 299 kts 195°
2026-04-29 10:31 49.38396 -120.37513 25285 ft 297 kts 204°
2026-04-29 10:31 49.37172 -120.38429 25287 ft 295 kts 213°
2026-04-29 10:31 49.34917 -120.40745 25291 ft 294 kts 217°
2026-04-29 10:31 49.33218 -120.42495 25295 ft 294 kts 217°
2026-04-29 10:32 49.31513 -120.44236 25297 ft 295 kts 217°
2026-04-29 10:32 49.29806 -120.45977 25289 ft 295 kts 217°
2026-04-29 10:32 49.28103 -120.47717 25289 ft 294 kts 217°
2026-04-29 10:32 49.26406 -120.49452 25281 ft 292 kts 217°
2026-04-29 10:33 49.25287 -120.50599 25287 ft 292 kts 217°
2026-04-29 10:33 49.23604 -120.52324 25288 ft 291 kts 217°
2026-04-29 10:33 49.21923 -120.54045 25287 ft 290 kts 217°
2026-04-29 10:33 49.20250 -120.55759 25283 ft 289 kts 217°
2026-04-29 10:34 49.18579 -120.57470 25285 ft 288 kts 217°
2026-04-29 10:34 49.16914 -120.59175 25288 ft 288 kts 217°
2026-04-29 10:34 49.15248 -120.60880 25266 ft 288 kts 217°
2026-04-29 10:34 49.13583 -120.62582 25272 ft 288 kts 217°
2026-04-29 10:35 49.11918 -120.64283 25273 ft 288 kts 217°
2026-04-29 10:35 49.10252 -120.65983 25270 ft 287 kts 217°
2026-04-29 10:35 49.08588 -120.67679 25284 ft 288 kts 217°
2026-04-29 10:35 49.06941 -120.69357 25287 ft 289 kts 217°
2026-04-29 10:36 49.05268 -120.71060 25295 ft 289 kts 217°
2026-04-29 10:36 49.03600 -120.72785 25294 ft 289 kts 218°
2026-04-29 10:36 49.01956 -120.74558 25293 ft 289 kts 219°
2026-04-29 10:36 49.00323 -120.76345 25284 ft 289 kts 219°
2026-04-29 10:37 48.98679 -120.78127 25281 ft 290 kts 218°
2026-04-29 10:37 48.97013 -120.79862 25291 ft 290 kts 217°
2026-04-29 10:37 48.95341 -120.81567 25294 ft 289 kts 217°
2026-04-29 10:37 48.93665 -120.83266 25291 ft 290 kts 217°
2026-04-29 10:38 48.91990 -120.84962 25292 ft 289 kts 217°
2026-04-29 10:38 48.90314 -120.86660 25284 ft 289 kts 217°
2026-04-29 10:38 48.88662 -120.88335 25281 ft 288 kts 217°
2026-04-29 10:38 48.86992 -120.90029 25306 ft 289 kts 217°
2026-04-29 10:39 48.85321 -120.91725 25296 ft 289 kts 217°
2026-04-29 10:39 48.83643 -120.93428 25298 ft 290 kts 217°
2026-04-29 10:39 48.81964 -120.95130 25296 ft 290 kts 218°
2026-04-29 10:39 48.80286 -120.96831 25298 ft 290 kts 217°
2026-04-29 10:40 48.78607 -120.98532 25312 ft 290 kts 217°
2026-04-29 10:40 48.76922 -121.00238 25309 ft 290 kts 217°
2026-04-29 10:40 48.75241 -121.01937 25305 ft 290 kts 217°
2026-04-29 10:40 48.73584 -121.03611 25304 ft 290 kts 217°
2026-04-29 10:41 48.71880 -121.05330 25304 ft 291 kts 217°
2026-04-29 10:41 48.70220 -121.07005 25292 ft 291 kts 218°
2026-04-29 10:41 48.68536 -121.08705 25298 ft 291 kts 218°
2026-04-29 10:41 48.66850 -121.10402 25310 ft 291 kts 218°
2026-04-29 10:42 48.65160 -121.12103 25309 ft 291 kts 217°
2026-04-29 10:42 48.63471 -121.13800 25312 ft 292 kts 218°
2026-04-29 10:42 48.61775 -121.15501 25309 ft 293 kts 218°
2026-04-29 10:42 48.60076 -121.17206 25320 ft 294 kts 218°
2026-04-29 10:43 48.58371 -121.18917 25321 ft 294 kts 218°
2026-04-29 10:43 48.56666 -121.20628 25315 ft 295 kts 218°
2026-04-29 10:43 48.54957 -121.22339 25312 ft 294 kts 218°
2026-04-29 10:43 48.53251 -121.24048 25318 ft 295 kts 218°
2026-04-29 10:44 48.51542 -121.25759 25325 ft 294 kts 218°
2026-04-29 10:44 48.49832 -121.27467 25323 ft 295 kts 218°
2026-04-29 10:44 48.48125 -121.29172 25324 ft 295 kts 218°
2026-04-29 10:44 48.46415 -121.30878 25326 ft 295 kts 218°
2026-04-29 10:45 48.44705 -121.32582 25329 ft 295 kts 218°
2026-04-29 10:45 48.43018 -121.34262 25311 ft 294 kts 218°
2026-04-29 10:45 48.41312 -121.35959 25322 ft 294 kts 218°
2026-04-29 10:45 48.39606 -121.37655 25324 ft 294 kts 218°
2026-04-29 10:46 48.37899 -121.39350 25324 ft 294 kts 217°
2026-04-29 10:46 48.36193 -121.41039 25313 ft 293 kts 218°
2026-04-29 10:46 48.34497 -121.42720 25316 ft 292 kts 218°
2026-04-29 10:46 48.32800 -121.44399 25315 ft 291 kts 218°
2026-04-29 10:47 48.31106 -121.46074 25320 ft 292 kts 218°
2026-04-29 10:47 48.29407 -121.47755 25329 ft 292 kts 217°
2026-04-29 10:47 48.27709 -121.49437 25329 ft 292 kts 217°
2026-04-29 10:47 48.26010 -121.51119 25324 ft 292 kts 218°
2026-04-29 10:48 48.24331 -121.52777 25316 ft 293 kts 219°
2026-04-29 10:48 48.22630 -121.54455 25317 ft 292 kts 218°
2026-04-29 10:48 48.20929 -121.56131 25324 ft 292 kts 219°
2026-04-29 10:48 48.19230 -121.57803 25320 ft 293 kts 219°
2026-04-29 10:49 48.17531 -121.59473 25316 ft 292 kts 218°
2026-04-29 10:49 48.15838 -121.61135 25298 ft 290 kts 218°
2026-04-29 10:49 48.14154 -121.62786 25303 ft 289 kts 219°
2026-04-29 10:49 48.12467 -121.64443 25320 ft 290 kts 219°
2026-04-29 10:50 48.10780 -121.66100 25325 ft 290 kts 219°
2026-04-29 10:50 48.09093 -121.67751 25315 ft 290 kts 218°
2026-04-29 10:50 48.07411 -121.69392 25318 ft 289 kts 218°
2026-04-29 10:50 48.05726 -121.71038 25333 ft 290 kts 218°
2026-04-29 10:51 48.04038 -121.72688 25334 ft 291 kts 218°
2026-04-29 10:51 48.02340 -121.74346 25330 ft 291 kts 218°
2026-04-29 10:51 48.00647 -121.76003 25320 ft 291 kts 220°
2026-04-29 10:51 47.98947 -121.77659 25331 ft 292 kts 220°
2026-04-29 10:52 47.97239 -121.79319 25330 ft 293 kts 220°
2026-04-29 10:52 47.95532 -121.80978 25332 ft 293 kts 220°
2026-04-29 10:52 47.93845 -121.82619 25350 ft 293 kts 219°
2026-04-29 10:52 47.92137 -121.84281 25343 ft 294 kts 219°
2026-04-29 10:53 47.90422 -121.85948 25339 ft 294 kts 219°
2026-04-29 10:53 47.88703 -121.87616 25331 ft 294 kts 219°
2026-04-29 10:53 47.86988 -121.89279 25329 ft 294 kts 219°
2026-04-29 10:53 47.85268 -121.90945 25325 ft 294 kts 219°
2026-04-29 10:54 47.83554 -121.92603 25328 ft 294 kts 219°
2026-04-29 10:54 47.81833 -121.94268 25331 ft 295 kts 219°
2026-04-29 10:54 47.80115 -121.95928 25331 ft 295 kts 219°
2026-04-29 10:54 47.78397 -121.97591 25313 ft 295 kts 220°
2026-04-29 10:55 47.76676 -121.99247 25321 ft 294 kts 220°
2026-04-29 10:55 47.74955 -122.00899 25323 ft 294 kts 220°
2026-04-29 10:55 47.73233 -122.02551 25324 ft 294 kts 220°
2026-04-29 10:55 47.71535 -122.04181 25323 ft 295 kts 220°
2026-04-29 10:56 47.69790 -122.05858 25323 ft 295 kts 220°
2026-04-29 10:56 47.68091 -122.07490 25320 ft 295 kts 220°
2026-04-29 10:56 47.66362 -122.09150 25319 ft 295 kts 220°
2026-04-29 10:56 47.64644 -122.10796 25317 ft 295 kts 220°
2026-04-29 10:57 47.62903 -122.12463 25316 ft 297 kts 220°
2026-04-29 10:57 47.61164 -122.14127 25313 ft 298 kts 220°
2026-04-29 10:57 47.59421 -122.15794 25313 ft 298 kts 220°
2026-04-29 10:57 47.57675 -122.17462 25320 ft 299 kts 220°
2026-04-29 10:58 47.55928 -122.19132 25304 ft 299 kts 220°
2026-04-29 10:58 47.54188 -122.20797 25307 ft 299 kts 220°
2026-04-29 10:58 47.52444 -122.22471 25307 ft 298 kts 220°
2026-04-29 10:58 47.50704 -122.24140 25312 ft 298 kts 220°
2026-04-29 10:59 47.48956 -122.25814 25312 ft 299 kts 220°
2026-04-29 10:59 47.47201 -122.27492 25165 ft 302 kts 220°
2026-04-29 10:59 47.45430 -122.29139 25001 ft 307 kts 216°
2026-04-29 10:59 47.43436 -122.30382 24836 ft 316 kts 201°
2026-04-29 11:00 47.41248 -122.30943 24666 ft 323 kts 186°
2026-04-29 11:00 47.38997 -122.30942 24503 ft 324 kts 182°
2026-04-29 11:00 47.36740 -122.30930 24339 ft 324 kts 182°
2026-04-29 11:00 47.34486 -122.30933 24178 ft 324 kts 182°
2026-04-29 11:01 47.32232 -122.30937 24019 ft 323 kts 182°
2026-04-29 11:01 47.29992 -122.30940 23819 ft 322 kts 182°
2026-04-29 11:01 47.27748 -122.30944 23527 ft 323 kts 183°
2026-04-29 11:01 47.25497 -122.30948 23243 ft 323 kts 182°
2026-04-29 11:02 47.23249 -122.30948 22972 ft 323 kts 182°
2026-04-29 11:02 47.21033 -122.30947 22706 ft 322 kts 182°
2026-04-29 11:02 47.18794 -122.30947 22439 ft 321 kts 182°
2026-04-29 11:02 47.16563 -122.30947 22172 ft 320 kts 182°
2026-04-29 11:03 47.14334 -122.30947 21918 ft 320 kts 182°
2026-04-29 11:03 47.12112 -122.30946 21659 ft 319 kts 182°
2026-04-29 11:03 47.09898 -122.30943 21411 ft 318 kts 182°
2026-04-29 11:03 47.07693 -122.30942 21156 ft 317 kts 182°
2026-04-29 11:04 47.05488 -122.30942 20906 ft 316 kts 182°
2026-04-29 11:04 47.03291 -122.30943 20665 ft 315 kts 182°
2026-04-29 11:04 47.01098 -122.30945 20415 ft 314 kts 182°
2026-04-29 11:04 46.98946 -122.30948 20172 ft 313 kts 182°
2026-04-29 11:05 46.96772 -122.30949 19929 ft 312 kts 182°
2026-04-29 11:05 46.94604 -122.30950 19692 ft 311 kts 182°
2026-04-29 11:05 46.92440 -122.30950 19454 ft 310 kts 182°
2026-04-29 11:05 46.90283 -122.30951 19193 ft 309 kts 182°
2026-04-29 11:06 46.88131 -122.30952 18960 ft 309 kts 182°
2026-04-29 11:06 46.86001 -122.30951 18731 ft 309 kts 182°
2026-04-29 11:06 46.83851 -122.30951 18488 ft 309 kts 182°
2026-04-29 11:06 46.81705 -122.30951 18226 ft 308 kts 182°
2026-04-29 11:07 46.79570 -122.30952 17968 ft 305 kts 182°
2026-04-29 11:07 46.77449 -122.30952 17705 ft 303 kts 182°
2026-04-29 11:07 46.75351 -122.30951 17446 ft 300 kts 181°
2026-04-29 11:07 46.73262 -122.30952 17190 ft 299 kts 181°
2026-04-29 11:08 46.71191 -122.30954 16927 ft 297 kts 181°
2026-04-29 11:08 46.69122 -122.30956 16683 ft 296 kts 181°
2026-04-29 11:08 46.67065 -122.30958 16439 ft 295 kts 181°
2026-04-29 11:08 46.65015 -122.30960 16181 ft 294 kts 181°
2026-04-29 11:09 46.63002 -122.30960 15931 ft 292 kts 181°
2026-04-29 11:09 46.60977 -122.30958 15681 ft 290 kts 181°
2026-04-29 11:09 46.58969 -122.30956 15433 ft 288 kts 181°
2026-04-29 11:09 46.56969 -122.30956 15198 ft 286 kts 181°
2026-04-29 11:10 46.54981 -122.30958 14955 ft 284 kts 181°
2026-04-29 11:10 46.53007 -122.30959 14711 ft 283 kts 181°
2026-04-29 11:10 46.51037 -122.30960 14473 ft 283 kts 181°
2026-04-29 11:10 46.49067 -122.30960 14231 ft 283 kts 181°
2026-04-29 11:11 46.47098 -122.30960 13984 ft 282 kts 181°
2026-04-29 11:11 46.45134 -122.30960 13725 ft 281 kts 181°
2026-04-29 11:11 46.43181 -122.30960 13489 ft 279 kts 180°
2026-04-29 11:11 46.41251 -122.30960 13323 ft 275 kts 180°
2026-04-29 11:12 46.39351 -122.30959 13191 ft 271 kts 180°
2026-04-29 11:12 46.37494 -122.30959 13065 ft 269 kts 180°
2026-04-29 11:12 46.35628 -122.30958 12938 ft 267 kts 180°
2026-04-29 11:12 46.33770 -122.30958 12811 ft 266 kts 180°
2026-04-29 11:13 46.31925 -122.30958 12676 ft 265 kts 180°
2026-04-29 11:13 46.30085 -122.30957 12548 ft 263 kts 180°
2026-04-29 11:13 46.28257 -122.30957 12415 ft 262 kts 180°
2026-04-29 11:13 46.26442 -122.31015 12290 ft 260 kts 185°
2026-04-29 11:14 46.24677 -122.31539 12165 ft 259 kts 199°
2026-04-29 11:14 46.23017 -122.32510 12035 ft 256 kts 203°
2026-04-29 11:14 46.21354 -122.33436 11910 ft 256 kts 201°
2026-04-29 11:14 46.19685 -122.34342 11780 ft 256 kts 201°
2026-04-29 11:15 46.18025 -122.35250 11643 ft 255 kts 202°
2026-04-29 11:15 46.16365 -122.36168 11516 ft 256 kts 202°
2026-04-29 11:15 46.14701 -122.37092 11396 ft 256 kts 202°
2026-04-29 11:15 46.13060 -122.38005 11271 ft 256 kts 202°
2026-04-29 11:16 46.11396 -122.38930 11144 ft 256 kts 202°
2026-04-29 11:16 46.09736 -122.39853 11019 ft 255 kts 202°
2026-04-29 11:16 46.08083 -122.40773 10904 ft 255 kts 202°
2026-04-29 11:16 46.06428 -122.41693 10789 ft 254 kts 202°
2026-04-29 11:17 46.04784 -122.42605 10671 ft 253 kts 202°
2026-04-29 11:17 46.03143 -122.43516 10556 ft 252 kts 202°
2026-04-29 11:17 46.01508 -122.44421 10434 ft 251 kts 202°
2026-04-29 11:17 45.99876 -122.45325 10316 ft 250 kts 202°
2026-04-29 11:18 45.98250 -122.46225 10181 ft 250 kts 201°
2026-04-29 11:18 45.96629 -122.47121 10062 ft 249 kts 201°
2026-04-29 11:18 45.95028 -122.48006 9920 ft 249 kts 201°
2026-04-29 11:18 45.93407 -122.48901 9784 ft 248 kts 201°
2026-04-29 11:19 45.91793 -122.49793 9664 ft 249 kts 202°
2026-04-29 11:19 45.90175 -122.50686 9518 ft 249 kts 202°
2026-04-29 11:19 45.88558 -122.51578 9394 ft 249 kts 202°
2026-04-29 11:19 45.86941 -122.52468 9263 ft 249 kts 202°
2026-04-29 11:20 45.85342 -122.53346 9130 ft 249 kts 201°
2026-04-29 11:20 45.83726 -122.54232 8994 ft 248 kts 202°
2026-04-29 11:20 45.82659 -122.54818 8917 ft 248 kts 202°
2026-04-29 11:20 45.80502 -122.56002 8744 ft 248 kts 201°
2026-04-29 11:21 45.79437 -122.56587 8663 ft 248 kts 201°
2026-04-29 11:21 45.77829 -122.57470 8533 ft 247 kts 201°
2026-04-29 11:21 45.76223 -122.58345 8405 ft 246 kts 200°
2026-04-29 11:21 45.74570 -122.58977 8276 ft 246 kts 190°
2026-04-29 11:22 45.72870 -122.59203 8146 ft 246 kts 181°
2026-04-29 11:22 45.71159 -122.59244 8016 ft 245 kts 181°
2026-04-29 11:22 45.69449 -122.59277 7909 ft 245 kts 181°
2026-04-29 11:22 45.67742 -122.59314 7783 ft 245 kts 181°
2026-04-29 11:23 45.66032 -122.59354 7659 ft 245 kts 181°
2026-04-29 11:23 45.64329 -122.59395 7535 ft 245 kts 181°
2026-04-29 11:23 45.62627 -122.59437 7411 ft 245 kts 181°
2026-04-29 11:23 45.60926 -122.59479 7277 ft 244 kts 181°
2026-04-29 11:24 45.59252 -122.59521 7161 ft 244 kts 181°
2026-04-29 11:24 45.57533 -122.59564 7044 ft 243 kts 181°
2026-04-29 11:24 45.55875 -122.59605 7020 ft 240 kts 181°
2026-04-29 11:24 45.54203 -122.59647 6871 ft 242 kts 181°
2026-04-29 11:25 45.52509 -122.59692 6633 ft 245 kts 181°
2026-04-29 11:25 45.50801 -122.59737 6367 ft 245 kts 181°
2026-04-29 11:25 45.49090 -122.59780 6106 ft 245 kts 181°
2026-04-29 11:25 45.47390 -122.59855 5846 ft 243 kts 186°
2026-04-29 11:26 45.44481 -122.61954 5333 ft 233 kts 229°
2026-04-29 11:26 45.43606 -122.63830 5078 ft 223 kts 241°
2026-04-29 11:26 45.42825 -122.65705 4811 ft 217 kts 240°
2026-04-29 11:27 45.42047 -122.67526 4539 ft 213 kts 240°
2026-04-29 11:27 45.41286 -122.69305 4288 ft 206 kts 240°
2026-04-29 11:27 45.40550 -122.71026 4030 ft 200 kts 240°
2026-04-29 11:27 45.39840 -122.72692 3776 ft 194 kts 239°
2026-04-29 11:28 45.39160 -122.74289 3513 ft 183 kts 239°
2026-04-29 11:28 45.38547 -122.75812 3251 ft 172 kts 247°
2026-04-29 11:28 45.38368 -122.77428 2995 ft 164 kts 278°
2026-04-29 11:28 45.38776 -122.78855 2865 ft 153 kts 309°
2026-04-29 11:29 45.39551 -122.79822 2778 ft 145 kts 326°
2026-04-29 11:29 45.40351 -122.80647 2701 ft 143 kts 326°
2026-04-29 11:29 45.41150 -122.81483 2610 ft 142 kts 325°
2026-04-29 11:29 45.41943 -122.82316 2537 ft 141 kts 325°
2026-04-29 11:30 45.42733 -122.83142 2461 ft 141 kts 326°
2026-04-29 11:30 45.43523 -122.83966 2389 ft 141 kts 326°
2026-04-29 11:30 45.44318 -122.84797 2278 ft 142 kts 326°
2026-04-29 11:30 45.45112 -122.85627 2173 ft 142 kts 326°
2026-04-29 11:31 45.45897 -122.86448 2052 ft 139 kts 326°
2026-04-29 11:31 45.46634 -122.87223 1996 ft 126 kts 326°
2026-04-29 11:31 45.47336 -122.87957 1829 ft 125 kts 325°
2026-04-29 11:31 45.48037 -122.88690 1642 ft 125 kts 325°
2026-04-29 11:32 45.48737 -122.89421 1447 ft 124 kts 324°
2026-04-29 11:32 45.49426 -122.90142 1279 ft 120 kts 323°
2026-04-29 11:32 45.50085 -122.90833 1099 ft 116 kts 323°
2026-04-29 11:32 45.50718 -122.91499 937 ft 108 kts 323°
2026-04-29 11:33 45.51283 -122.92092 792 ft 97 kts 323°
2026-04-29 11:33 45.51815 -122.92650 661 ft 93 kts 323°
2026-04-29 11:33 45.52329 -122.93189 534 ft 91 kts 323°
2026-04-29 11:33 45.52836 -122.93719 409 ft 90 kts 324°
2026-04-29 11:34 45.53343 -122.94251 279 ft 91 kts 323°
2026-04-29 11:34 45.53821 -122.94757 203 ft 77 kts 323°
2026-04-29 11:34 45.54180 -122.95134 209 ft 41 kts 323°
2026-04-29 11:34 45.54336 -122.95298 216 ft 20 kts 323°
2026-04-29 11:35 45.54418 -122.95445 205 ft 20 kts 293°
2026-04-29 11:35 45.54417 -122.95559 208 ft 13 kts 189°
2026-04-29 11:35 45.54341 -122.95492 204 ft 13 kts 146°
2026-04-29 11:35 45.54284 -122.95435 205 ft 10 kts 143°
2026-04-29 11:36 45.54226 -122.95374 205 ft 11 kts 141°
2026-04-29 11:36 45.54157 -122.95319 205 ft 12 kts 204°
2026-04-29 11:36 45.54107 -122.95380 209 ft 8 kts 152°
2026-04-29 11:36 45.54061 -122.95364 207 ft 8 kts 233°
2026-04-29 11:37 45.54085 -122.95428 207 ft 6 kts 330°
2026-04-29 11:37 45.54107 -122.95419 206 ft 1 kts 58°
2026-04-29 11:37 45.54109 -122.95414 208 ft 0 kts 58°
2026-04-29 11:37 45.54111 -122.95410 208 ft 0 kts 53°